Weather in Selo Lva Tolstogo

Russia / Kaluga Oblast     54°36′25″N   36°02′29″E
temp.,
°C
wind,
m/s
gust,
m/s
humid.,
%
clouds,
%
prec.,
mm/h
press.,
hPa
HPBL,
m
23 april, fri
fri2300:00+7s4119110 0.1 1015243
03:00+6s512925 0.1 1014273
06:00+6s51391100 0.2 1014336
09:00+11s7147669 0.6 1013770
12:00+14ssw81363100 0.8 10121890
15:00+6w4891100 6.3 1014629
18:00+7sw2477100 1.0 1014673
21:00+5se249296 1.7 1013157
24 april, sat
sat2400:00+5sw3692100 2.3 1012700
03:00+4w3687100 2.6 1010247
06:00+4wsw3688100 0.2 1010246
09:00+6w46675 0.3 1009833
12:00+8w455795 0.7 10091516
15:00+7w5565100 2.3 10091116
18:00+5wnw2680100 2.4 1009678
21:00+4w51176100 3.1 1011380
25 april, sun
sun2500:00+1w512822 0.0 1012354
03:000wsw511895 0.0 1012288
06:000wsw510915 0.0 1012363
09:00+3wsw6884100 0.1 1012852
12:00+6wsw7952100 0.9 10121979
15:00+7wsw71046100 1.3 10122332
18:00+5w695884 0.1 10121456
21:00+1wsw37774 0.1 1014123
26 april, mon
mon2600:00−1wsw37825 0.0 1014159
03:00−1sw38825 0.0 1014177
06:00−1sw38805 0.0 1014225
09:00+5sw56625 0.0 1014892
12:00+7wsw5651100 0.9 10131796
15:00+7sw565196 1.9 10121594
18:00+6wsw5765100 0.9 1011807
21:00+2wsw3585100 1.3 101190
27 april, tue
tue2700:00+1wsw3886100 0.0 1012165
03:00−1wsw38905 0.0 1012153
06:00−1wsw38885 0.0 1012218
09:00+5wsw586646 0.0 1013831
12:00+7wsw6753100 1.1 10121964
15:00+8wsw574999 2.1 10111935
18:00+7w466235 1.1 1012724
21:00+2w33785 1.1 101428